Regional Weather Roundup
Issued by NWS Jackson, KY

Home | Current Version | Previous Version | Text Only | Print | Product List | Glossary Off
Versions: 1 2 3 4 5 6 7 8 9 10 11 12 13 14 15 16 17 18 19 20 21 22 23 24 25 26 27 28 29 30 31 32 33 34 35 36 37 38 39 40 41 42 43 44 45 46 47 48 49 50

230
ASUS43 KJKL 250310
RWRJKL

EAST KENTUCKY HOURLY WEATHER ROUNDUP
NATIONAL WEATHER SERVICE JACKSON KY
1100 PM EDT SAT SEP 24 2016

NOTE: "FAIR" INDICATES FEW OR NO CLOUDS BELOW 12,000 FEET WITH
NO SIGNIFICANT WEATHER AND/OR OBSTRUCTIONS TO VISIBILITY.

* THESE REPORTS ARE NOT UNDER NWS QUALITY CONTROL AND MAY NOT
  REPORT WEATHER SUCH AS PRECIPITATION AND FOG.

KYZ079-080-083-085-087-088-110-112-115-119-120-250400
...EASTERN KENTUCKY...

CITY           SKY/WX    TMP DP  RH WIND       PRES   REMARKS
JACKSON        CLEAR     74  65  73 CALM      30.13S
LONDON         CLEAR     70  65  84 CALM      30.11S
SOMERSET*      CLEAR     68  68 100 CALM      30.11S
WILLIAMSBURG*  CLEAR     68  68 100 CALM      30.11S
MIDDLESBORO*   CLEAR     66  65  94 CALM      30.13R
HARLAN APT*    CLEAR     66  63  88 CALM      30.14S
PIKE CO APT*     N/A     73  65  75 N5        30.13S
MOREHEAD APT*  MOCLDY    73  63  68 E3        30.14S
ASHLAND*       CLEAR     72  64  78 CALM      30.11R
$$

KYZ035-036-041-042-044-050-067-078-099-250400
...CENTRAL KENTUCKY...

CITY           SKY/WX    TMP DP  RH WIND       PRES   REMARKS
MT STERLING*   CLEAR     72  64  78 NE3       30.14S
FLEMING/MASON* CLEAR     71  64  79 NE6       30.14R
DANVILLE*      CLEAR     72  66  83 CALM      30.12S
LEXINGTON      PTCLDY    75  65  70 NE8       30.12R
FRANKFORT      CLEAR     77  66  68 NE5       30.10S
LOUISVILLE     PTCLDY    80  66  62 E8        30.08S
LEBANON*         N/A     75  66  73 NE3       30.10S
GLASGOW*       CLEAR     69  69 100 CALM      30.08S
BOWLING GREEN  CLEAR     72  67  84 CALM      30.07S
$$

KYZ091>093-OHZ055-061-077-WVZ005-015-034-035-042-250400
...SOUTHERN OHIO/WEST VIRGINIA...

CITY           SKY/WX    TMP DP  RH WIND       PRES   REMARKS
COVINGTON      CLEAR     73  66  78 E5        30.12S
COLUMBUS       CLEAR     65  57  75 NE7       30.15S
DAYTON         CLEAR     65  58  78 NE9       30.16S
WILMINGTON     CLEAR     65  61  87 NE7       30.14S
HUNTINGTON     CLEAR     74  63  68 NE7       30.12R
CHARLESTON     CLEAR     71  63  75 NE3       30.12S
PINEVILLE*     CLEAR     65  62  88 MISG      30.20S
BECKLEY        CLEAR     64  61  90 CALM      30.18F
BLUEFIELD      CLEAR     67  59  75 CALM      30.21S
LOGAN CO APT*    N/A     73  64  73 CALM      30.13S
$$

VAZ002-007-008-TNZ017-027-036-066-071-250400
...SOUTHWEST VIRGINIA/EAST TENNESSEE...

CITY           SKY/WX    TMP DP  RH WIND       PRES   REMARKS
WISE*          CLEAR     68  54  60 CALM      30.21S
JONESVILLE*      N/A     66  64  94 CALM      30.15S
ABINGDON*      CLEAR     69  61  77 CALM      30.16S
BRISTOL        CLEAR     67  63  87 CALM      30.12S
MORRISTOWN*    CLEAR     73  63  68 CALM      30.10S
SEVIERVILLE*   CLEAR     70  63  78 CALM      30.08F
OAK RIDGE      CLEAR     73  65  75 CALM      30.10S
CROSSVILLE     CLEAR     68  63  84 CALM      30.14F
NASHVILLE      CLEAR     77  63  61 E5        30.07S
$$

...KEY TO REMARKS...
VSB - VISIBILITY IN MILES
WCI - WIND CHILL INDEX
HX  - HEAT INDEX

$$




USA.gov is the U.S. government's official web portal to all federal, state and local government web resources and services.